| time (UTC) | temp F | wind direction | speed knots | gust knots | rain 1hr in | rain 24hr in | rain mn in | humidity % | barometer mb |
| 20260506031504 | 53 | 22 | 0.9 | 0.9 | 0.00 | 0.00 | 0.00 | 84 | 1021.3 |
| 20260506031004 | 52 | 22 | 0.9 | 0.9 | 0.00 | 0.00 | 0.00 | 83 | 1021.3 |
| 20260506030504 | 52 | 22 | 0.9 | 0.9 | 0.00 | 0.00 | 0.00 | 83 | 1021.3 |
| 20260506030006 | 53 | 22 | 0.9 | 0.9 | 0.00 | 0.00 | 0.00 | 83 | 1021.3 |
| 20260506025504 | 52 | 22 | 0.9 | 0.9 | 0.00 | 0.00 | 0.00 | 83 | 1021.3 |
| 20260506025004 | 52 | 10 | 0.9 | 0.9 | 0.00 | 0.00 | 0.00 | 83 | 1021.3 |
| 20260506024504 | 52 | 351 | 1.7 | 4.3 | 0.00 | 0.00 | 0.00 | 83 | 1021.3 |
| 20260506024004 | 53 | 339 | 1.7 | 4.3 | 0.00 | 0.00 | 0.00 | 83 | 1021.3 |
| 20260506023504 | 53 | 336 | 1.7 | 3.5 | 0.00 | 0.00 | 0.00 | 83 | 1021.3 |
| 20260506023004 | 53 | 330 | 0.9 | 1.7 | 0.00 | 0.00 | 0.00 | 83 | 1021.3 |
| 20260506022505 | 53 | 327 | 1.7 | 2.6 | 0.00 | 0.00 | 0.00 | 83 | 1021.3 |
| 20260506022004 | 53 | 330 | 0.9 | 2.6 | 0.00 | 0.00 | 0.00 | 83 | 1021.3 |
| 20260506021504 | 53 | 6 | 0.9 | 3.5 | 0.00 | 0.00 | 0.00 | 83 | 1021.3 |
| 20260506021005 | 53 | 350 | 1.7 | 3.5 | 0.00 | 0.00 | 0.00 | 83 | 1021.3 |
| 20260506020504 | 53 | 343 | 1.7 | 3.5 | 0.00 | 0.00 | 0.00 | 83 | 1021.3 |
| 20260506020006 | 53 | 5 | 1.7 | 3.5 | 0.00 | 0.00 | 0.00 | 83 | 1021.3 |
| 20260506015504 | 53 | 10 | 1.7 | 3.5 | 0.00 | 0.00 | 0.00 | 83 | 1021.3 |
| 20260506015004 | 53 | 3 | 1.7 | 3.5 | 0.00 | 0.00 | 0.00 | 83 | 1021.3 |
| 20260506014504 | 53 | 355 | 1.7 | 3.5 | 0.00 | 0.00 | 0.00 | 83 | 1021.3 |
| 20260506014004 | 53 | 345 | 1.7 | 2.6 | 0.00 | 0.00 | 0.00 | 82 | 1021.3 |
| 20260506013504 | 53 | 359 | 1.7 | 2.6 | 0.00 | 0.00 | 0.00 | 83 | 1021.3 |
| 20260506013004 | 53 | 8 | 1.7 | 1.7 | 0.00 | 0.00 | 0.00 | 83 | 1021.3 |
| 20260506012504 | 53 | 349 | 0.9 | 1.7 | 0.00 | 0.00 | 0.00 | 82 | 1021.3 |
| 20260506012005 | 53 | 342 | 1.7 | 1.7 | 0.00 | 0.00 | 0.00 | 82 | 1021.3 |
| 20260506011504 | 53 | 341 | 1.7 | 1.7 | 0.00 | 0.00 | 0.00 | 82 | 1021.3 |
| 20260506011004 | 53 | 344 | 0.9 | 1.7 | 0.00 | 0.00 | 0.00 | 82 | 1021.3 |
| 20260506010504 | 53 | 22 | 0.0 | 0.9 | 0.00 | 0.00 | 0.00 | 82 | 1021.3 |
| 20260506010006 | 53 | 320 | 0.0 | 0.9 | 0.00 | 0.00 | 0.00 | 82 | 1022.3 |
| 20260506005504 | 53 | 317 | 0.9 | 1.7 | 0.00 | 0.00 | 0.00 | 82 | 1022.3 |
| 20260506005004 | 53 | 337 | 0.9 | 1.7 | 0.00 | 0.00 | 0.00 | 81 | 1022.3 |
| 20260506004505 | 53 | 354 | 0.9 | 1.7 | 0.00 | 0.00 | 0.00 | 81 | 1022.3 |
| 20260506004004 | 53 | 19 | 0.9 | 2.6 | 0.00 | 0.00 | 0.00 | 81 | 1022.3 |
| 20260506003504 | 53 | 32 | 0.9 | 2.6 | 0.00 | 0.00 | 0.00 | 81 | 1022.3 |
| 20260506003004 | 53 | 35 | 0.9 | 2.6 | 0.00 | 0.00 | 0.00 | 81 | 1022.3 |
| 20260506002504 | 53 | 21 | 0.9 | 2.6 | 0.00 | 0.00 | 0.00 | 82 | 1022.3 |
| 20260506002004 | 53 | 337 | 0.0 | 1.7 | 0.00 | 0.00 | 0.00 | 82 | 1022.3 |
| 20260506001503 | 53 | 292 | 0.0 | 0.9 | 0.00 | 0.00 | 0.00 | 82 | 1022.3 |
| 20260506001004 | 53 | 274 | 0.0 | 1.7 | 0.00 | 0.00 | 0.00 | 82 | 1022.3 |
| 20260506000504 | 53 | 289 | 0.9 | 1.7 | 0.00 | 0.00 | 0.00 | 82 | 1022.3 |
| 20260506000006 | 53 | 340 | 0.9 | 2.6 | 0.00 | 0.00 | 0.00 | 81 | 1022.3 |
| 20260505235503 | 53 | 316 | 0.9 | 2.6 | 0.00 | 0.00 | 0.00 | 82 | 1022.3 |
| 20260505235004 | 53 | 300 | 0.0 | 1.7 | 0.00 | 0.00 | 0.00 | 82 | 1022.3 |
| 20260505234504 | 53 | 305 | 0.0 | 1.7 | 0.00 | 0.00 | 0.00 | 82 | 1022.3 |
| 20260505234004 | 53 | 314 | 0.0 | 1.7 | 0.00 | 0.00 | 0.00 | 82 | 1022.3 |
| 20260505233504 | 53 | 303 | 0.0 | 1.7 | 0.00 | 0.00 | 0.00 | 82 | 1022.3 |
| 20260505233004 | 53 | 292 | 0.9 | 1.7 | 0.00 | 0.00 | 0.00 | 82 | 1022.3 |
| 20260505232503 | 53 | 286 | 1.7 | 2.6 | 0.00 | 0.00 | 0.00 | 81 | 1022.3 |
| 20260505232004 | 53 | 285 | 1.7 | 2.6 | 0.00 | 0.00 | 0.00 | 81 | 1022.3 |
| 20260505231504 | 53 | 308 | 1.7 | 3.5 | 0.00 | 0.00 | 0.00 | 81 | 1022.3 |
| 20260505231004 | 53 | 314 | 1.7 | 3.5 | 0.00 | 0.00 | 0.00 | 80 | 1022.3 |
| 20260505230504 | 53 | 308 | 0.9 | 2.6 | 0.00 | 0.00 | 0.00 | 80 | 1022.3 |
| 20260505230009 | 53 | 309 | 0.9 | 2.6 | 0.00 | 0.00 | 0.00 | 79 | 1022.3 |
| 20260505225504 | 53 | 323 | 0.9 | 2.6 | 0.00 | 0.00 | 0.00 | 79 | 1022.3 |
| 20260505225003 | 54 | 322 | 1.7 | 3.5 | 0.00 | 0.00 | 0.00 | 79 | 1022.3 |
| 20260505224504 | 54 | 318 | 0.9 | 3.5 | 0.00 | 0.00 | 0.00 | 79 | 1022.3 |
| 20260505224004 | 54 | 328 | 1.7 | 3.5 | 0.00 | 0.00 | 0.00 | 79 | 1022.3 |
| 20260505223504 | 53 | 321 | 2.6 | 3.5 | 0.00 | 0.00 | 0.00 | 79 | 1022.3 |
| 20260505223005 | 53 | 331 | 1.7 | 2.6 | 0.00 | 0.00 | 0.00 | 79 | 1022.3 |
| 20260505222504 | 53 | 350 | 2.6 | 5.2 | 0.00 | 0.00 | 0.00 | 79 | 1022.3 |
| 20260505222004 | 53 | 333 | 2.6 | 5.2 | 0.00 | 0.00 | 0.00 | 79 | 1022.3 |
| 20260505221504 | 53 | 323 | 1.7 | 5.2 | 0.00 | 0.00 | 0.00 | 79 | 1022.3 |
| 20260505221004 | 53 | 324 | 1.7 | 3.5 | 0.00 | 0.00 | 0.00 | 78 | 1022.3 |
| 20260505220504 | 53 | 315 | 1.7 | 2.6 | 0.00 | 0.00 | 0.00 | 78 | 1022.3 |
| 20260505220005 | 53 | 310 | 1.7 | 2.6 | 0.00 | 0.00 | 0.00 | 78 | 1022.3 |
| 20260505215504 | 53 | 313 | 0.9 | 2.6 | 0.00 | 0.00 | 0.00 | 77 | 1022.3 |
| 20260505215004 | 53 | 337 | 0.9 | 2.6 | 0.00 | 0.00 | 0.00 | 77 | 1022.3 |
| 20260505214504 | 53 | 317 | 1.7 | 3.5 | 0.00 | 0.00 | 0.00 | 76 | 1022.3 |
| 20260505214004 | 53 | 307 | 1.7 | 3.5 | 0.00 | 0.00 | 0.00 | 76 | 1022.3 |
| 20260505213504 | 53 | 295 | 1.7 | 3.5 | 0.00 | 0.00 | 0.00 | 76 | 1022.3 |
| 20260505213004 | 54 | 288 | 1.7 | 2.6 | 0.00 | 0.00 | 0.00 | 75 | 1022.3 |
| 20260505212504 | 54 | 301 | 1.7 | 3.5 | 0.00 | 0.00 | 0.00 | 75 | 1022.3 |
| 20260505212004 | 54 | 309 | 1.7 | 3.5 | 0.00 | 0.00 | 0.00 | 75 | 1022.3 |
| 20260505211504 | 54 | 301 | 1.7 | 3.5 | 0.00 | 0.00 | 0.00 | 74 | 1022.3 |
| 20260505211004 | 54 | 317 | 1.7 | 3.5 | 0.00 | 0.00 | 0.00 | 74 | 1022.3 |
| 20260505210504 | 54 | 330 | 2.6 | 3.5 | 0.00 | 0.00 | 0.00 | 74 | 1022.3 |
| 20260505210006 | 54 | 337 | 2.6 | 3.5 | 0.00 | 0.00 | 0.00 | 72 | 1022.3 |
| 20260505205504 | 54 | 336 | 2.6 | 3.5 | 0.00 | 0.00 | 0.00 | 71 | 1022.3 |
| 20260505205005 | 54 | 331 | 2.6 | 3.5 | 0.00 | 0.00 | 0.00 | 71 | 1022.3 |
| 20260505204504 | 54 | 350 | 2.6 | 5.2 | 0.00 | 0.00 | 0.00 | 71 | 1022.3 |
| 20260505204003 | 54 | 354 | 2.6 | 5.2 | 0.00 | 0.00 | 0.00 | 70 | 1022.3 |
| 20260505203504 | 54 | 338 | 1.7 | 2.6 | 0.00 | 0.00 | 0.00 | 70 | 1022.3 |
| 20260505203004 | 54 | 334 | 2.6 | 5.2 | 0.00 | 0.00 | 0.00 | 70 | 1022.3 |
| 20260505202504 | 54 | 337 | 3.5 | 5.2 | 0.00 | 0.00 | 0.00 | 69 | 1022.3 |
| 20260505202005 | 55 | 330 | 2.6 | 5.2 | 0.00 | 0.00 | 0.00 | 69 | 1022.3 |
| 20260505201504 | 55 | 327 | 2.6 | 2.6 | 0.00 | 0.00 | 0.00 | 69 | 1022.3 |
| 20260505201004 | 56 | 314 | 6.1 | 6.1 | 0.00 | 0.00 | 0.00 | 66 | 1022.3 |
| 20260505200504 | 56 | 314 | 6.1 | 6.1 | 0.00 | 0.00 | 0.00 | 66 | 1022.3 |
| 20260505200006 | 56 | 314 | 6.1 | 6.1 | 0.00 | 0.00 | 0.00 | 66 | 1022.3 |
| 20260505195504 | 56 | 314 | 6.1 | 6.1 | 0.00 | 0.00 | 0.00 | 66 | 1022.3 |
| 20260505195004 | 56 | 314 | 6.1 | 6.1 | 0.00 | 0.00 | 0.00 | 66 | 1022.3 |
| 20260505194504 | 56 | 314 | 6.1 | 6.1 | 0.00 | 0.00 | 0.00 | 66 | 1022.3 |
| 20260505194004 | 56 | 314 | 6.1 | 6.1 | 0.00 | 0.00 | 0.00 | 66 | 1022.3 |
| 20260505193504 | 56 | 314 | 6.1 | 6.1 | 0.00 | 0.00 | 0.00 | 66 | 1022.3 |
| 20260505193004 | 56 | 314 | 6.1 | 6.1 | 0.00 | 0.00 | 0.00 | 66 | 1022.3 |
| 20260505192504 | 56 | 314 | 6.1 | 6.1 | 0.00 | 0.00 | 0.00 | 66 | 1022.3 |
| 20260505192004 | 56 | 314 | 6.1 | 6.1 | 0.00 | 0.00 | 0.00 | 66 | 1022.3 |
| 20260505191504 | 56 | 314 | 6.1 | 6.1 | 0.00 | 0.00 | 0.00 | 66 | 1022.3 |
| 20260505191005 | 56 | 314 | 6.1 | 6.1 | 0.00 | 0.00 | 0.00 | 66 | 1022.3 |
| 20260505190504 | 57 | 356 | 5.2 | 7.0 | 0.00 | 0.00 | 0.00 | 65 | 1022.3 |
| 20260505190006 | 57 | 359 | 5.2 | 7.0 | 0.00 | 0.00 | 0.00 | 65 | 1022.3 |
| 20260505185504 | 57 | 358 | 6.1 | 8.7 | 0.00 | 0.00 | 0.00 | 64 | 1022.3 |
| 20260505185005 | 57 | 3 | 6.1 | 8.7 | 0.00 | 0.00 | 0.00 | 63 | 1022.3 |
| 20260505184504 | 58 | 6 | 4.3 | 8.7 | 0.00 | 0.00 | 0.00 | 63 | 1022.3 |
| 20260505184006 | 58 | 358 | 4.3 | 8.7 | 0.00 | 0.00 | 0.00 | 63 | 1022.3 |
| 20260505183505 | 58 | 350 | 5.2 | 7.0 | 0.00 | 0.00 | 0.00 | 63 | 1022.3 |
| 20260505183006 | 58 | 6 | 6.1 | 7.8 | 0.00 | 0.00 | 0.00 | 62 | 1022.3 |
| 20260505182505 | 58 | 5 | 6.1 | 7.8 | 0.00 | 0.00 | 0.00 | 62 | 1022.3 |
| 20260505182006 | 58 | 343 | 6.1 | 7.8 | 0.00 | 0.00 | 0.00 | 61 | 1022.3 |
| 20260505181506 | 58 | 326 | 5.2 | 7.0 | 0.00 | 0.00 | 0.00 | 62 | 1022.3 |
| 20260505181007 | 59 | 337 | 5.2 | 8.7 | 0.00 | 0.00 | 0.00 | 62 | 1022.3 |
| 20260505180506 | 59 | 335 | 6.1 | 8.7 | 0.00 | 0.00 | 0.00 | 61 | 1022.3 |
| 20260505180008 | 59 | 345 | 7.0 | 9.6 | 0.00 | 0.00 | 0.00 | 60 | 1022.3 |
| 20260505175506 | 59 | 351 | 7.0 | 9.6 | 0.00 | 0.00 | 0.00 | 58 | 1022.3 |
| 20260505175005 | 59 | 344 | 6.1 | 11.3 | 0.00 | 0.00 | 0.00 | 58 | 1022.3 |
| 20260505174506 | 60 | 331 | 7.8 | 11.3 | 0.00 | 0.00 | 0.00 | 57 | 1022.3 |
| 20260505174006 | 60 | 326 | 7.8 | 9.6 | 0.00 | 0.00 | 0.00 | 56 | 1022.3 |
| 20260505173506 | 60 | 325 | 7.0 | 9.6 | 0.00 | 0.00 | 0.00 | 56 | 1022.3 |
| 20260505173005 | 60 | 335 | 7.0 | 9.6 | 0.00 | 0.00 | 0.00 | 55 | 1022.3 |
| 20260505172505 | 60 | 352 | 7.0 | 11.3 | 0.00 | 0.00 | 0.00 | 56 | 1022.3 |
| 20260505172006 | 61 | 1 | 6.1 | 11.3 | 0.00 | 0.00 | 0.00 | 56 | 1022.3 |
| 20260505171505 | 61 | 344 | 7.0 | 11.3 | 0.00 | 0.00 | 0.00 | 55 | 1022.3 |
| 20260505171006 | 61 | 328 | 6.1 | 7.8 | 0.00 | 0.00 | 0.00 | 55 | 1022.3 |
| 20260505170506 | 61 | 1 | 3.5 | 5.2 | 0.00 | 0.00 | 0.00 | 56 | 1022.3 |
| 20260505170008 | 61 | 1 | 3.5 | 5.2 | 0.00 | 0.00 | 0.00 | 56 | 1022.3 |
| 20260505165506 | 61 | 1 | 3.5 | 5.2 | 0.00 | 0.00 | 0.00 | 57 | 1022.3 |
| 20260505165006 | 61 | 1 | 3.5 | 5.2 | 0.00 | 0.00 | 0.00 | 57 | 1022.3 |
| 20260505164505 | 61 | 1 | 3.5 | 5.2 | 0.00 | 0.00 | 0.00 | 57 | 1022.3 |
| 20260505164005 | 61 | 1 | 3.5 | 5.2 | 0.00 | 0.00 | 0.00 | 57 | 1022.3 |
| 20260505163506 | 61 | 328 | 6.1 | 11.3 | 0.00 | 0.00 | 0.00 | 60 | 1022.3 |
| 20260505163008 | 61 | 321 | 6.1 | 11.3 | 0.00 | 0.00 | 0.00 | 60 | 1022.3 |
| 20260505162505 | 61 | 302 | 6.1 | 8.7 | 0.00 | 0.00 | 0.00 | 63 | 1022.3 |
| 20260505162005 | 61 | 306 | 7.8 | 8.7 | 0.00 | 0.00 | 0.00 | 63 | 1022.3 |
| 20260505161505 | 61 | 307 | 6.1 | 7.8 | 0.00 | 0.00 | 0.00 | 63 | 1022.3 |
| 20260505161005 | 62 | 294 | 7.0 | 7.8 | 0.00 | 0.00 | 0.00 | 67 | 1022.3 |
| 20260505160505 | 61 | 287 | 7.0 | 7.8 | 0.00 | 0.00 | 0.00 | 67 | 1022.3 |
| 20260505153006 | 62 | 290 | 7.8 | 12.2 | 0.00 | 0.00 | 0.00 | 70 | 1022.3 |
| 20260505152505 | 62 | 298 | 7.8 | 12.2 | 0.00 | 0.00 | 0.00 | 70 | 1022.3 |
| 20260505152005 | 62 | 308 | 7.8 | 9.6 | 0.00 | 0.00 | 0.00 | 70 | 1022.3 |
| 20260505151505 | 62 | 308 | 7.8 | 9.6 | 0.00 | 0.00 | 0.00 | 71 | 1022.3 |
| 20260505151006 | 63 | 297 | 8.7 | 9.6 | 0.00 | 0.00 | 0.00 | 67 | 1022.3 |
| 20260505150506 | 63 | 292 | 7.8 | 9.6 | 0.00 | 0.00 | 0.00 | 67 | 1022.3 |
| 20260505085505 | 55 | 6 | 2.6 | 4.3 | 0.00 | 0.00 | 0.00 | 93 | 1022.3 |
| 20260505085005 | 55 | 1 | 3.5 | 7.0 | 0.00 | 0.00 | 0.00 | 93 | 1022.3 |
| 20260505084505 | 55 | 15 | 4.3 | 7.0 | 0.00 | 0.00 | 0.00 | 94 | 1022.3 |
| 20260505084005 | 56 | 21 | 2.6 | 4.3 | 0.00 | 0.00 | 0.00 | 94 | 1022.3 |
| 20260505083505 | 55 | 31 | 1.7 | 2.6 | 0.00 | 0.00 | 0.00 | 94 | 1022.3 |
| 20260505083005 | 56 | 48 | 0.9 | 2.6 | 0.00 | 0.00 | 0.00 | 94 | 1022.3 |
| 20260505082505 | 56 | 71 | 0.9 | 2.6 | 0.00 | 0.00 | 0.00 | 94 | 1022.3 |
| 20260505082005 | 55 | 87 | 0.9 | 1.7 | 0.00 | 0.00 | 0.00 | 94 | 1022.3 |
| 20260505081506 | 56 | 0 | 0.0 | 0.0 | 0.00 | 0.00 | 0.00 | 94 | 1022.3 |
| 20260505081005 | 56 | 0 | 0.0 | 0.0 | 0.00 | 0.00 | 0.00 | 94 | 1022.3 |
| 20260505080505 | 56 | 0 | 0.0 | 0.0 | 0.00 | 0.00 | 0.00 | 94 | 1022.3 |
| 20260505080006 | 56 | 0 | 0.0 | 0.0 | 0.00 | 0.00 | 0.00 | 94 | 1022.3 |
| 20260505075505 | 56 | 0 | 0.0 | 0.0 | 0.00 | 0.00 | 0.00 | 94 | 1022.3 |
| 20260505075005 | 56 | 0 | 0.0 | 0.0 | 0.00 | 0.00 | 0.00 | 94 | 1022.3 |
| 20260505074505 | 56 | 326 | 0.9 | 1.7 | 0.00 | 0.00 | 0.00 | 94 | 1022.3 |
| 20260505074005 | 56 | 339 | 0.9 | 1.7 | 0.00 | 0.00 | 0.00 | 94 | 1022.3 |
| 20260505073505 | 56 | 330 | 0.9 | 1.7 | 0.00 | 0.00 | 0.00 | 95 | 1022.3 |
| 20260505073005 | 56 | 319 | 0.9 | 1.7 | 0.00 | 0.00 | 0.00 | 95 | 1022.3 |
| 20260505072504 | 56 | 292 | 0.0 | 1.7 | 0.00 | 0.00 | 0.00 | 95 | 1022.3 |
| 20260505072005 | 56 | 0 | 0.0 | 0.0 | 0.00 | 0.00 | 0.00 | 96 | 1022.3 |
| 20260505071505 | 56 | 0 | 0.0 | 0.0 | 0.00 | 0.00 | 0.00 | 96 | 1022.3 |
| 20260505071005 | 56 | 0 | 0.0 | 0.0 | 0.00 | 0.00 | 0.00 | 97 | 1022.3 |
| 20260505070505 | 55 | 0 | 0.0 | 0.0 | 0.00 | 0.00 | 0.00 | 97 | 1022.3 |
| 20260505070007 | 54 | 259 | 0.0 | 0.9 | 0.00 | 0.00 | 0.00 | 97 | 1022.3 |
| 20260505065505 | 54 | 281 | 0.9 | 2.6 | 0.00 | 0.00 | 0.00 | 97 | 1022.3 |
| 20260505065004 | 54 | 297 | 1.7 | 3.5 | 0.00 | 0.00 | 0.00 | 97 | 1022.3 |
| 20260505064504 | 54 | 318 | 0.9 | 3.5 | 0.00 | 0.00 | 0.00 | 100 | 1022.3 |
| 20260505064005 | 54 | 334 | 0.9 | 1.7 | 0.00 | 0.00 | 0.00 | 100 | 1022.3 |
| 20260505063505 | 54 | 320 | 0.9 | 1.7 | 0.00 | 0.00 | 0.00 | 100 | 1022.3 |
| 20260505063004 | 54 | 295 | 0.9 | 0.9 | 0.00 | 0.00 | 0.00 | 100 | 1022.3 |
| 20260505062504 | 53 | 295 | 0.9 | 0.9 | 0.00 | 0.00 | 0.00 | 100 | 1022.3 |
| 20260505062004 | 53 | 0 | 0.0 | 0.0 | 0.00 | 0.00 | 0.00 | 100 | 1022.3 |
| 20260505061504 | 53 | 0 | 0.0 | 0.0 | 0.00 | 0.00 | 0.00 | 100 | 1022.3 |
| 20260505061005 | 53 | 0 | 0.0 | 0.0 | 0.00 | 0.00 | 0.00 | 100 | 1022.3 |
| 20260505060505 | 53 | 0 | 0.0 | 0.0 | 0.00 | 0.00 | 0.00 | 100 | 1022.3 |
| 20260505060006 | 53 | 0 | 0.0 | 0.0 | 0.00 | 0.00 | 0.00 | 100 | 1022.3 |
| 20260505055505 | 52 | 0 | 0.0 | 0.0 | 0.00 | 0.00 | 0.00 | 100 | 1022.3 |
| 20260505055004 | 52 | 0 | 0.0 | 0.0 | 0.00 | 0.00 | 0.00 | 100 | 1022.3 |
| 20260505054505 | 52 | 0 | 0.0 | 0.0 | 0.00 | 0.00 | 0.00 | 100 | 1022.3 |
| 20260505054008 | 52 | 0 | 0.0 | 0.0 | 0.00 | 0.00 | 0.00 | 100 | 1022.3 |
| 20260505053504 | 52 | 0 | 0.0 | 0.0 | 0.00 | 0.00 | 0.00 | 100 | 1022.3 |
| 20260505053004 | 52 | 0 | 0.0 | 0.0 | 0.00 | 0.00 | 0.00 | 100 | 1022.3 |
| 20260505052505 | 52 | 0 | 0.0 | 0.0 | 0.00 | 0.00 | 0.00 | 100 | 1022.3 |
| 20260505052005 | 52 | 0 | 0.0 | 0.0 | 0.00 | 0.00 | 0.00 | 100 | 1022.3 |
| 20260505051504 | 52 | 0 | 0.0 | 0.0 | 0.00 | 0.00 | 0.00 | 100 | 1022.3 |
| 20260505051004 | 52 | 203 | 0.0 | 0.9 | 0.00 | 0.00 | 0.00 | 100 | 1022.3 |
| 20260505050504 | 52 | 96 | 0.0 | 0.9 | 0.00 | 0.00 | 0.00 | 100 | 1022.3 |
| 20260505041505 | 51 | 68 | 0.9 | 1.7 | 0.00 | 0.00 | 0.00 | 100 | 1022.3 |
| 20260505041004 | 51 | 68 | 0.0 | 1.7 | 0.00 | 0.00 | 0.00 | 100 | 1022.3 |
| 20260505040505 | 51 | 314 | 0.0 | 0.9 | 0.00 | 0.00 | 0.00 | 100 | 1022.3 |
| 20260505040006 | 51 | 300 | 0.9 | 1.7 | 0.00 | 0.00 | 0.00 | 100 | 1022.3 |
| 20260505035504 | 51 | 292 | 0.0 | 1.7 | 0.00 | 0.00 | 0.00 | 100 | 1022.3 |
| 20260505035005 | 51 | 0 | 0.0 | 0.0 | 0.00 | 0.00 | 0.00 | 100 | 1022.3 |
| 20260505034504 | 51 | 0 | 0.0 | 0.0 | 0.00 | 0.00 | 0.00 | 100 | 1022.3 |
| 20260505034004 | 51 | 0 | 0.0 | 0.0 | 0.00 | 0.00 | 0.00 | 100 | 1022.3 |
| 20260505033504 | 51 | 0 | 0.0 | 0.0 | 0.00 | 0.00 | 0.00 | 100 | 1022.3 |
| 20260505033005 | 51 | 0 | 0.0 | 0.0 | 0.00 | 0.00 | 0.00 | 100 | 1022.3 |
| 20260505032504 | 50 | 0 | 0.0 | 0.0 | 0.00 | 0.00 | 0.00 | 100 | 1022.3 |
| 20260505032005 | 50 | 0 | 0.0 | 0.0 | 0.00 | 0.00 | 0.00 | 100 | 1022.3 |